Terug naar catalogus

STARLINK-32105

ActiefCommunicatieVLEO
NORAD 59689·PAYLOAD·🇺🇸 United States

Gelanceerd May 8, 2024 vanaf Cape Canaveral Space Force Station

Loading…

Volgende Passages (komende 24 uur)

TLE

VersSource: CelesTrak SupGP

Epoch: Sep 15, 2026, 03:18 UTC

1 59689C 24086H   26258.13798611 -.00027547  00000+0 -99807-3 0  2586
2 59689  43.0002  69.7280 0001402 270.6230 279.0212 15.27581743    14

Volg STARLINK-32105 in realtime met AllMySat

Download on the App Store